owner,sensor,date,latitude,longitude,air_pressure(mBar),qcFlag 
WAVCIS,ioos:station:WAVCIS:CSI09:1,2017-01-01T00:00:00Z,29.1015,-89.9782,1013.3,11111222 
WAVCIS,ioos:station:WAVCIS:CSI09:1,2017-01-01T01:00:00Z,29.1015,-89.9782,1013.04,11111222 
WAVCIS,ioos:station:WAVCIS:CSI09:1,2017-01-01T02:00:00Z,29.1015,-89.9782,1013.12,11111222 
WAVCIS,ioos:station:WAVCIS:CSI09:1,2017-01-01T03:00:00Z,29.1015,-89.9782,1013.41,11111222 
WAVCIS,ioos:station:WAVCIS:CSI09:1,2017-01-01T04:00:00Z,29.1015,-89.9782,1013.65,11111222 
WAVCIS,ioos:station:WAVCIS:CSI09:1,2017-01-01T05:00:00Z,29.1015,-89.9782,1013.42,11111222 
WAVCIS,ioos:station:WAVCIS:CSI09:1,2017-01-01T06:00:00Z,29.1015,-89.9782,1012.92,11111222 
WAVCIS,ioos:station:WAVCIS:CSI09:1,2017-01-01T07:00:00Z,29.1015,-89.9782,1012.28,11111222 
WAVCIS,ioos:station:WAVCIS:CSI09:1,2017-01-01T08:00:00Z,29.1015,-89.9782,1012.45,11111222 
WAVCIS,ioos:station:WAVCIS:CSI09:1,2017-01-01T09:00:00Z,29.1015,-89.9782,1012.7,11111222 
WAVCIS,ioos:station:WAVCIS:CSI09:1,2017-01-01T10:00:00Z,29.1015,-89.9782,1012.92,11111222 
WAVCIS,ioos:station:WAVCIS:CSI09:1,2017-01-01T11:00:00Z,29.1015,-89.9782,1012.89,11111222 
WAVCIS,ioos:station:WAVCIS:CSI09:1,2017-01-01T12:00:00Z,29.1015,-89.9782,1013.09,11111222 
WAVCIS,ioos:station:WAVCIS:CSI09:1,2017-01-01T13:00:00Z,29.1015,-89.9782,1013.67,11111222 
WAVCIS,ioos:station:WAVCIS:CSI09:1,2017-01-01T14:00:00Z,29.1015,-89.9782,1014.32,11111222 
WAVCIS,ioos:station:WAVCIS:CSI09:1,2017-01-01T15:00:00Z,29.1015,-89.9782,1014.92,11111222 
WAVCIS,ioos:station:WAVCIS:CSI09:1,2017-01-01T16:00:00Z,29.1015,-89.9782,1015.75,11111222 
WAVCIS,ioos:station:WAVCIS:CSI09:1,2017-01-01T17:00:00Z,29.1015,-89.9782,1015.75,11111222 
WAVCIS,ioos:station:WAVCIS:CSI09:1,2017-01-01T18:00:00Z,29.1015,-89.9782,1014.64,11111222 
WAVCIS,ioos:station:WAVCIS:CSI09:1,2017-01-01T19:00:00Z,29.1015,-89.9782,1013.84,11111222 
WAVCIS,ioos:station:WAVCIS:CSI09:1,2017-01-01T20:00:00Z,29.1015,-89.9782,1013.59,11111222 
WAVCIS,ioos:station:WAVCIS:CSI09:1,2017-01-01T21:00:00Z,29.1015,-89.9782,1013.56,11111222 
WAVCIS,ioos:station:WAVCIS:CSI09:1,2017-01-01T22:00:00Z,29.1015,-89.9782,1013.83,11111222 
WAVCIS,ioos:station:WAVCIS:CSI09:1,2017-01-01T23:00:00Z,29.1015,-89.9782,1014.69,11111222 
WAVCIS,ioos:station:WAVCIS:CSI09:1,2017-01-02T00:00:00Z,29.1015,-89.9782,1014.61,11111222 
WAVCIS,ioos:station:WAVCIS:CSI09:1,2017-01-02T01:00:00Z,29.1015,-89.9782,1015.06,11111222 
WAVCIS,ioos:station:WAVCIS:CSI09:1,2017-01-02T02:00:00Z,29.1015,-89.9782,1015.46,11111222 
WAVCIS,ioos:station:WAVCIS:CSI09:1,2017-01-02T03:00:00Z,29.1015,-89.9782,1016.41,11111222 
WAVCIS,ioos:station:WAVCIS:CSI09:1,2017-01-02T04:00:00Z,29.1015,-89.9782,1015.53,11111222 
WAVCIS,ioos:station:WAVCIS:CSI09:1,2017-01-02T05:00:00Z,29.1015,-89.9782,1015.6,11111222 
WAVCIS,ioos:station:WAVCIS:CSI09:1,2017-01-02T06:00:00Z,29.1015,-89.9782,1015.42,11111222 
WAVCIS,ioos:station:WAVCIS:CSI09:1,2017-01-02T07:00:00Z,29.1015,-89.9782,1015.32,11111222 
WAVCIS,ioos:station:WAVCIS:CSI09:1,2017-01-02T08:00:00Z,29.1015,-89.9782,1014.96,11111222 
WAVCIS,ioos:station:WAVCIS:CSI09:1,2017-01-02T09:00:00Z,29.1015,-89.9782,1014.65,11111222 
WAVCIS,ioos:station:WAVCIS:CSI09:1,2017-01-02T10:00:00Z,29.1015,-89.9782,1014.43,11111222 
WAVCIS,ioos:station:WAVCIS:CSI09:1,2017-01-02T11:00:00Z,29.1015,-89.9782,1014.32,11111222 
WAVCIS,ioos:station:WAVCIS:CSI09:1,2017-01-02T12:00:00Z,29.1015,-89.9782,1014.01,11111222 
WAVCIS,ioos:station:WAVCIS:CSI09:1,2017-01-02T13:00:00Z,29.1015,-89.9782,1014.07,11111222 
WAVCIS,ioos:station:WAVCIS:CSI09:1,2017-01-02T14:00:00Z,29.1015,-89.9782,1014.39,11111222 
WAVCIS,ioos:station:WAVCIS:CSI09:1,2017-01-02T15:00:00Z,29.1015,-89.9782,1014.86,11111222 
WAVCIS,ioos:station:WAVCIS:CSI09:1,2017-01-02T16:00:00Z,29.1015,-89.9782,1014.85,11111222 
WAVCIS,ioos:station:WAVCIS:CSI09:1,2017-01-02T17:00:00Z,29.1015,-89.9782,1013.97,11111222 
WAVCIS,ioos:station:WAVCIS:CSI09:1,2017-01-02T18:00:00Z,29.1015,-89.9782,1012.75,11111222 
WAVCIS,ioos:station:WAVCIS:CSI09:1,2017-01-02T19:00:00Z,29.1015,-89.9782,1011.55,11111222 
WAVCIS,ioos:station:WAVCIS:CSI09:1,2017-01-02T20:00:00Z,29.1015,-89.9782,1011.0,11111222 
WAVCIS,ioos:station:WAVCIS:CSI09:1,2017-01-02T21:00:00Z,29.1015,-89.9782,1011.23,11111222 
WAVCIS,ioos:station:WAVCIS:CSI09:1,2017-01-02T22:00:00Z,29.1015,-89.9782,1011.74,11111222 
WAVCIS,ioos:station:WAVCIS:CSI09:1,2017-01-02T23:00:00Z,29.1015,-89.9782,1012.04,11111222 
WAVCIS,ioos:station:WAVCIS:CSI09:1,2017-01-03T00:00:00Z,29.1015,-89.9782,1011.94,11111222 
WAVCIS,ioos:station:WAVCIS:CSI09:1,2017-01-03T01:00:00Z,29.1015,-89.9782,1012.16,11111222 
WAVCIS,ioos:station:WAVCIS:CSI09:1,2017-01-03T02:00:00Z,29.1015,-89.9782,1013.12,11111222 
WAVCIS,ioos:station:WAVCIS:CSI09:1,2017-01-03T03:00:00Z,29.1015,-89.9782,1012.89,11111222 
WAVCIS,ioos:station:WAVCIS:CSI09:1,2017-01-03T04:00:00Z,29.1015,-89.9782,1013.33,11111222 
WAVCIS,ioos:station:WAVCIS:CSI09:1,2017-01-03T05:00:00Z,29.1015,-89.9782,1013.32,11111222 
WAVCIS,ioos:station:WAVCIS:CSI09:1,2017-01-03T06:00:00Z,29.1015,-89.9782,1013.34,11111222 
WAVCIS,ioos:station:WAVCIS:CSI09:1,2017-01-03T07:00:00Z,29.1015,-89.9782,1013.38,11111222 
WAVCIS,ioos:station:WAVCIS:CSI09:1,2017-01-03T08:00:00Z,29.1015,-89.9782,1013.36,11111222 
WAVCIS,ioos:station:WAVCIS:CSI09:1,2017-01-03T09:00:00Z,29.1015,-89.9782,1013.38,11111222 
WAVCIS,ioos:station:WAVCIS:CSI09:1,2017-01-03T10:00:00Z,29.1015,-89.9782,1013.72,11111222 
WAVCIS,ioos:station:WAVCIS:CSI09:1,2017-01-03T11:00:00Z,29.1015,-89.9782,1013.45,11111222 
WAVCIS,ioos:station:WAVCIS:CSI09:1,2017-01-03T12:00:00Z,29.1015,-89.9782,1013.75,11111222 
WAVCIS,ioos:station:WAVCIS:CSI09:1,2017-01-03T13:00:00Z,29.1015,-89.9782,1013.97,11111222 
WAVCIS,ioos:station:WAVCIS:CSI09:1,2017-01-03T14:00:00Z,29.1015,-89.9782,1014.53,11111222 
WAVCIS,ioos:station:WAVCIS:CSI09:1,2017-01-03T15:00:00Z,29.1015,-89.9782,1015.3,11111222 
WAVCIS,ioos:station:WAVCIS:CSI09:1,2017-01-03T16:00:00Z,29.1015,-89.9782,1015.71,11111222 
WAVCIS,ioos:station:WAVCIS:CSI09:1,2017-01-03T17:00:00Z,29.1015,-89.9782,1015.62,11111222 
WAVCIS,ioos:station:WAVCIS:CSI09:1,2017-01-03T18:00:00Z,29.1015,-89.9782,1015.09,11111222 
WAVCIS,ioos:station:WAVCIS:CSI09:1,2017-01-03T19:00:00Z,29.1015,-89.9782,1014.18,11111222 
WAVCIS,ioos:station:WAVCIS:CSI09:1,2017-01-03T20:00:00Z,29.1015,-89.9782,1013.58,11111222 
WAVCIS,ioos:station:WAVCIS:CSI09:1,2017-01-03T21:00:00Z,29.1015,-89.9782,1013.59,11111222 
WAVCIS,ioos:station:WAVCIS:CSI09:1,2017-01-03T22:00:00Z,29.1015,-89.9782,1013.42,11111222 
WAVCIS,ioos:station:WAVCIS:CSI09:1,2017-01-03T23:00:00Z,29.1015,-89.9782,1013.65,11111222 
WAVCIS,ioos:station:WAVCIS:CSI09:1,2017-01-04T00:00:00Z,29.1015,-89.9782,1013.66,11111222 
WAVCIS,ioos:station:WAVCIS:CSI09:1,2017-01-04T01:00:00Z,29.1015,-89.9782,1013.59,11111222 
WAVCIS,ioos:station:WAVCIS:CSI09:1,2017-01-04T02:00:00Z,29.1015,-89.9782,1013.62,11111222 
WAVCIS,ioos:station:WAVCIS:CSI09:1,2017-01-04T03:00:00Z,29.1015,-89.9782,1013.61,11111222 
WAVCIS,ioos:station:WAVCIS:CSI09:1,2017-01-04T04:00:00Z,29.1015,-89.9782,1013.68,11111222 
WAVCIS,ioos:station:WAVCIS:CSI09:1,2017-01-04T05:00:00Z,29.1015,-89.9782,1013.88,11111222 
WAVCIS,ioos:station:WAVCIS:CSI09:1,2017-01-04T06:00:00Z,29.1015,-89.9782,1013.59,11111222 
WAVCIS,ioos:station:WAVCIS:CSI09:1,2017-01-04T07:00:00Z,29.1015,-89.9782,1013.53,11111222 
WAVCIS,ioos:station:WAVCIS:CSI09:1,2017-01-04T08:00:00Z,29.1015,-89.9782,1013.56,11111222 
WAVCIS,ioos:station:WAVCIS:CSI09:1,2017-01-04T09:00:00Z,29.1015,-89.9782,1013.54,11111222 
WAVCIS,ioos:station:WAVCIS:CSI09:1,2017-01-04T10:00:00Z,29.1015,-89.9782,1013.69,11111222 
WAVCIS,ioos:station:WAVCIS:CSI09:1,2017-01-04T11:00:00Z,29.1015,-89.9782,1013.69,11111222 
WAVCIS,ioos:station:WAVCIS:CSI09:1,2017-01-04T12:00:00Z,29.1015,-89.9782,1014.15,11111222 
WAVCIS,ioos:station:WAVCIS:CSI09:1,2017-01-04T13:00:00Z,29.1015,-89.9782,1014.86,11111222 
WAVCIS,ioos:station:WAVCIS:CSI09:1,2017-01-04T14:00:00Z,29.1015,-89.9782,1015.76,11111222 
WAVCIS,ioos:station:WAVCIS:CSI09:1,2017-01-04T15:00:00Z,29.1015,-89.9782,1016.41,11111222 
WAVCIS,ioos:station:WAVCIS:CSI09:1,2017-01-04T16:00:00Z,29.1015,-89.9782,1017.22,11111222 
WAVCIS,ioos:station:WAVCIS:CSI09:1,2017-01-04T17:00:00Z,29.1015,-89.9782,1016.69,11111222 
WAVCIS,ioos:station:WAVCIS:CSI09:1,2017-01-04T18:00:00Z,29.1015,-89.9782,1015.81,11111222 
WAVCIS,ioos:station:WAVCIS:CSI09:1,2017-01-04T19:00:00Z,29.1015,-89.9782,1014.65,11111222 
WAVCIS,ioos:station:WAVCIS:CSI09:1,2017-01-04T20:00:00Z,29.1015,-89.9782,1014.89,11111222 
WAVCIS,ioos:station:WAVCIS:CSI09:1,2017-01-04T21:00:00Z,29.1015,-89.9782,1014.8,11111222 
WAVCIS,ioos:station:WAVCIS:CSI09:1,2017-01-04T22:00:00Z,29.1015,-89.9782,1014.47,11111222 
WAVCIS,ioos:station:WAVCIS:CSI09:1,2017-01-04T23:00:00Z,29.1015,-89.9782,1014.85,11111222 
WAVCIS,ioos:station:WAVCIS:CSI09:1,2017-01-05T00:00:00Z,29.1015,-89.9782,1014.72,11111222 
WAVCIS,ioos:station:WAVCIS:CSI09:1,2017-01-05T01:00:00Z,29.1015,-89.9782,1015.13,11111222 
WAVCIS,ioos:station:WAVCIS:CSI09:1,2017-01-05T02:00:00Z,29.1015,-89.9782,1015.11,11111222 
WAVCIS,ioos:station:WAVCIS:CSI09:1,2017-01-05T03:00:00Z,29.1015,-89.9782,1015.58,11111222 
WAVCIS,ioos:station:WAVCIS:CSI09:1,2017-01-05T04:00:00Z,29.1015,-89.9782,1015.51,11111222 
WAVCIS,ioos:station:WAVCIS:CSI09:1,2017-01-05T05:00:00Z,29.1015,-89.9782,1015.27,11111222 
WAVCIS,ioos:station:WAVCIS:CSI09:1,2017-01-05T06:00:00Z,29.1015,-89.9782,1013.89,11111222 
WAVCIS,ioos:station:WAVCIS:CSI09:1,2017-01-05T07:00:00Z,29.1015,-89.9782,1013.57,11111222 
WAVCIS,ioos:station:WAVCIS:CSI09:1,2017-01-05T08:00:00Z,29.1015,-89.9782,1013.21,11111222 
WAVCIS,ioos:station:WAVCIS:CSI09:1,2017-01-05T09:00:00Z,29.1015,-89.9782,1013.26,11111222 
WAVCIS,ioos:station:WAVCIS:CSI09:1,2017-01-05T10:00:00Z,29.1015,-89.9782,1012.63,11111222 
WAVCIS,ioos:station:WAVCIS:CSI09:1,2017-01-05T11:00:00Z,29.1015,-89.9782,1013.16,11111222 
WAVCIS,ioos:station:WAVCIS:CSI09:1,2017-01-05T12:00:00Z,29.1015,-89.9782,1013.82,11111222 
WAVCIS,ioos:station:WAVCIS:CSI09:1,2017-01-05T13:00:00Z,29.1015,-89.9782,1013.99,11111222 
WAVCIS,ioos:station:WAVCIS:CSI09:1,2017-01-05T14:00:00Z,29.1015,-89.9782,1013.84,11111222 
WAVCIS,ioos:station:WAVCIS:CSI09:1,2017-01-05T15:00:00Z,29.1015,-89.9782,1014.35,11111222 
WAVCIS,ioos:station:WAVCIS:CSI09:1,2017-01-05T16:00:00Z,29.1015,-89.9782,1014.57,11111222 
WAVCIS,ioos:station:WAVCIS:CSI09:1,2017-01-05T17:00:00Z,29.1015,-89.9782,1014.1,11111222 
WAVCIS,ioos:station:WAVCIS:CSI09:1,2017-01-05T18:00:00Z,29.1015,-89.9782,1012.84,11111222 
WAVCIS,ioos:station:WAVCIS:CSI09:1,2017-01-05T19:00:00Z,29.1015,-89.9782,1011.73,11111222 
WAVCIS,ioos:station:WAVCIS:CSI09:1,2017-01-05T20:00:00Z,29.1015,-89.9782,1011.53,11111222 
WAVCIS,ioos:station:WAVCIS:CSI09:1,2017-01-05T21:00:00Z,29.1015,-89.9782,1011.53,11111222 
WAVCIS,ioos:station:WAVCIS:CSI09:1,2017-01-05T22:00:00Z,29.1015,-89.9782,1011.45,11111222 
WAVCIS,ioos:station:WAVCIS:CSI09:1,2017-01-05T23:00:00Z,29.1015,-89.9782,1011.46,11111222 
WAVCIS,ioos:station:WAVCIS:CSI09:1,2017-01-06T00:00:00Z,29.1015,-89.9782,1011.46,11111222 
WAVCIS,ioos:station:WAVCIS:CSI09:1,2017-01-06T01:00:00Z,29.1015,-89.9782,1011.86,11111222 
WAVCIS,ioos:station:WAVCIS:CSI09:1,2017-01-06T02:00:00Z,29.1015,-89.9782,1012.03,11111222 
WAVCIS,ioos:station:WAVCIS:CSI09:1,2017-01-06T03:00:00Z,29.1015,-89.9782,1011.63,11111222 
WAVCIS,ioos:station:WAVCIS:CSI09:1,2017-01-06T04:00:00Z,29.1015,-89.9782,1011.62,11111222 
WAVCIS,ioos:station:WAVCIS:CSI09:1,2017-01-06T05:00:00Z,29.1015,-89.9782,1011.43,11111222 
WAVCIS,ioos:station:WAVCIS:CSI09:1,2017-01-06T06:00:00Z,29.1015,-89.9782,1011.18,11111222 
WAVCIS,ioos:station:WAVCIS:CSI09:1,2017-01-06T07:00:00Z,29.1015,-89.9782,1010.96,11111222 
WAVCIS,ioos:station:WAVCIS:CSI09:1,2017-01-06T08:00:00Z,29.1015,-89.9782,1010.8,11111222 
WAVCIS,ioos:station:WAVCIS:CSI09:1,2017-01-06T09:00:00Z,29.1015,-89.9782,1011.12,11111222 
WAVCIS,ioos:station:WAVCIS:CSI09:1,2017-01-06T10:00:00Z,29.1015,-89.9782,1011.28,11111222 
WAVCIS,ioos:station:WAVCIS:CSI09:1,2017-01-06T11:00:00Z,29.1015,-89.9782,1011.23,11111222 
WAVCIS,ioos:station:WAVCIS:CSI09:1,2017-01-06T12:00:00Z,29.1015,-89.9782,1011.34,11111222 
WAVCIS,ioos:station:WAVCIS:CSI09:1,2017-01-06T13:00:00Z,29.1015,-89.9782,1012.01,11111222 
WAVCIS,ioos:station:WAVCIS:CSI09:1,2017-01-06T14:00:00Z,29.1015,-89.9782,1011.99,11111222 
WAVCIS,ioos:station:WAVCIS:CSI09:1,2017-01-06T15:00:00Z,29.1015,-89.9782,1012.13,11111222 
WAVCIS,ioos:station:WAVCIS:CSI09:1,2017-01-06T16:00:00Z,29.1015,-89.9782,1013.35,11111222 
WAVCIS,ioos:station:WAVCIS:CSI09:1,2017-01-06T17:00:00Z,29.1015,-89.9782,1013.34,11111222 
WAVCIS,ioos:station:WAVCIS:CSI09:1,2017-01-06T18:00:00Z,29.1015,-89.9782,1012.6,11111222 
WAVCIS,ioos:station:WAVCIS:CSI09:1,2017-01-06T19:00:00Z,29.1015,-89.9782,1012.46,11111222 
WAVCIS,ioos:station:WAVCIS:CSI09:1,2017-01-06T20:00:00Z,29.1015,-89.9782,1011.29,11111222 
WAVCIS,ioos:station:WAVCIS:CSI09:1,2017-01-06T21:00:00Z,29.1015,-89.9782,1012.25,11111222 
WAVCIS,ioos:station:WAVCIS:CSI09:1,2017-01-06T22:00:00Z,29.1015,-89.9782,1012.41,11111222 
WAVCIS,ioos:station:WAVCIS:CSI09:1,2017-01-06T23:00:00Z,29.1015,-89.9782,1012.21,11111222 
WAVCIS,ioos:station:WAVCIS:CSI09:1,2017-01-07T00:00:00Z,29.1015,-89.9782,1013.57,11111222 
WAVCIS,ioos:station:WAVCIS:CSI09:1,2017-01-07T01:00:00Z,29.1015,-89.9782,1015.53,11111222 
WAVCIS,ioos:station:WAVCIS:CSI09:1,2017-01-07T02:00:00Z,29.1015,-89.9782,1015.45,11111222 
WAVCIS,ioos:station:WAVCIS:CSI09:1,2017-01-07T03:00:00Z,29.1015,-89.9782,1017.34,11111222 
WAVCIS,ioos:station:WAVCIS:CSI09:1,2017-01-07T04:00:00Z,29.1015,-89.9782,1018.66,11111222 
WAVCIS,ioos:station:WAVCIS:CSI09:1,2017-01-07T05:00:00Z,29.1015,-89.9782,1019.29,11111222 
WAVCIS,ioos:station:WAVCIS:CSI09:1,2017-01-07T06:00:00Z,29.1015,-89.9782,1020.09,11111222 
WAVCIS,ioos:station:WAVCIS:CSI09:1,2017-01-07T07:00:00Z,29.1015,-89.9782,1020.57,11111222 
WAVCIS,ioos:station:WAVCIS:CSI09:1,2017-01-07T08:00:00Z,29.1015,-89.9782,1021.91,11111222 
WAVCIS,ioos:station:WAVCIS:CSI09:1,2017-01-07T09:00:00Z,29.1015,-89.9782,1022.52,11111222 
WAVCIS,ioos:station:WAVCIS:CSI09:1,2017-01-07T10:00:00Z,29.1015,-89.9782,1023.63,11111222 
WAVCIS,ioos:station:WAVCIS:CSI09:1,2017-01-07T11:00:00Z,29.1015,-89.9782,1024.59,11111222 
WAVCIS,ioos:station:WAVCIS:CSI09:1,2017-01-07T12:00:00Z,29.1015,-89.9782,1026.15,11111222 
WAVCIS,ioos:station:WAVCIS:CSI09:1,2017-01-07T13:00:00Z,29.1015,-89.9782,1027.85,11111222 
WAVCIS,ioos:station:WAVCIS:CSI09:1,2017-01-07T14:00:00Z,29.1015,-89.9782,1029.43,11111222 
WAVCIS,ioos:station:WAVCIS:CSI09:1,2017-01-07T15:00:00Z,29.1015,-89.9782,1031.07,11111222 
WAVCIS,ioos:station:WAVCIS:CSI09:1,2017-01-07T16:00:00Z,29.1015,-89.9782,1031.86,11111222 
WAVCIS,ioos:station:WAVCIS:CSI09:1,2017-01-07T17:00:00Z,29.1015,-89.9782,1031.88,11111222 
WAVCIS,ioos:station:WAVCIS:CSI09:1,2017-01-07T18:00:00Z,29.1015,-89.9782,1031.88,11111222 
WAVCIS,ioos:station:WAVCIS:CSI09:1,2017-01-07T19:00:00Z,29.1015,-89.9782,1031.32,11111222 
WAVCIS,ioos:station:WAVCIS:CSI09:1,2017-01-07T20:00:00Z,29.1015,-89.9782,1031.23,11111222 
WAVCIS,ioos:station:WAVCIS:CSI09:1,2017-01-07T21:00:00Z,29.1015,-89.9782,1031.44,11111222 
WAVCIS,ioos:station:WAVCIS:CSI09:1,2017-01-07T22:00:00Z,29.1015,-89.9782,1032.22,11111222 
WAVCIS,ioos:station:WAVCIS:CSI09:1,2017-01-07T23:00:00Z,29.1015,-89.9782,1033.07,11111222 
WAVCIS,ioos:station:WAVCIS:CSI09:1,2017-01-08T00:00:00Z,29.1015,-89.9782,1033.57,11111222 
WAVCIS,ioos:station:WAVCIS:CSI09:1,2017-01-08T01:00:00Z,29.1015,-89.9782,1034.57,11111222 
WAVCIS,ioos:station:WAVCIS:CSI09:1,2017-01-08T02:00:00Z,29.1015,-89.9782,1035.4,11111222 
WAVCIS,ioos:station:WAVCIS:CSI09:1,2017-01-08T03:00:00Z,29.1015,-89.9782,1035.69,11111222 
WAVCIS,ioos:station:WAVCIS:CSI09:1,2017-01-08T04:00:00Z,29.1015,-89.9782,1036.14,11111222 
WAVCIS,ioos:station:WAVCIS:CSI09:1,2017-01-08T05:00:00Z,29.1015,-89.9782,1036.27,11111222 
WAVCIS,ioos:station:WAVCIS:CSI09:1,2017-01-08T06:00:00Z,29.1015,-89.9782,1036.38,11111222 
WAVCIS,ioos:station:WAVCIS:CSI09:1,2017-01-08T07:00:00Z,29.1015,-89.9782,1036.14,11111222 
WAVCIS,ioos:station:WAVCIS:CSI09:1,2017-01-08T08:00:00Z,29.1015,-89.9782,1036.28,11111222 
WAVCIS,ioos:station:WAVCIS:CSI09:1,2017-01-08T09:00:00Z,29.1015,-89.9782,1036.34,11111222 
WAVCIS,ioos:station:WAVCIS:CSI09:1,2017-01-08T10:00:00Z,29.1015,-89.9782,1036.57,11111222 
WAVCIS,ioos:station:WAVCIS:CSI09:1,2017-01-08T11:00:00Z,29.1015,-89.9782,1036.99,11111222 
WAVCIS,ioos:station:WAVCIS:CSI09:1,2017-01-08T12:00:00Z,29.1015,-89.9782,1037.15,11111222 
WAVCIS,ioos:station:WAVCIS:CSI09:1,2017-01-08T13:00:00Z,29.1015,-89.9782,1037.91,11111222 
WAVCIS,ioos:station:WAVCIS:CSI09:1,2017-01-08T14:00:00Z,29.1015,-89.9782,1038.99,11111222 
WAVCIS,ioos:station:WAVCIS:CSI09:1,2017-01-08T15:00:00Z,29.1015,-89.9782,1039.06,11111222 
WAVCIS,ioos:station:WAVCIS:CSI09:1,2017-01-08T16:00:00Z,29.1015,-89.9782,1039.65,11111222 
WAVCIS,ioos:station:WAVCIS:CSI09:1,2017-01-08T17:00:00Z,29.1015,-89.9782,1038.81,11111222 
WAVCIS,ioos:station:WAVCIS:CSI09:1,2017-01-08T18:00:00Z,29.1015,-89.9782,1037.56,11111222 
WAVCIS,ioos:station:WAVCIS:CSI09:1,2017-01-08T19:00:00Z,29.1015,-89.9782,1036.64,11111222 
WAVCIS,ioos:station:WAVCIS:CSI09:1,2017-01-08T20:00:00Z,29.1015,-89.9782,1036.19,11111222 
WAVCIS,ioos:station:WAVCIS:CSI09:1,2017-01-08T21:00:00Z,29.1015,-89.9782,1035.79,11111222 
WAVCIS,ioos:station:WAVCIS:CSI09:1,2017-01-08T22:00:00Z,29.1015,-89.9782,1035.64,11111222 
WAVCIS,ioos:station:WAVCIS:CSI09:1,2017-01-08T23:00:00Z,29.1015,-89.9782,1035.43,11111222 
WAVCIS,ioos:station:WAVCIS:CSI09:1,2017-01-09T00:00:00Z,29.1015,-89.9782,1035.94,11111222 
WAVCIS,ioos:station:WAVCIS:CSI09:1,2017-01-09T01:00:00Z,29.1015,-89.9782,1035.74,11111222 
WAVCIS,ioos:station:WAVCIS:CSI09:1,2017-01-09T02:00:00Z,29.1015,-89.9782,1035.41,11111222 
WAVCIS,ioos:station:WAVCIS:CSI09:1,2017-01-09T03:00:00Z,29.1015,-89.9782,1035.56,11111222 
WAVCIS,ioos:station:WAVCIS:CSI09:1,2017-01-09T04:00:00Z,29.1015,-89.9782,1035.92,11111222 
WAVCIS,ioos:station:WAVCIS:CSI09:1,2017-01-09T05:00:00Z,29.1015,-89.9782,1035.72,11111222 
WAVCIS,ioos:station:WAVCIS:CSI09:1,2017-01-09T06:00:00Z,29.1015,-89.9782,1035.29,11111222 
WAVCIS,ioos:station:WAVCIS:CSI09:1,2017-01-09T07:00:00Z,29.1015,-89.9782,1034.38,11111222 
WAVCIS,ioos:station:WAVCIS:CSI09:1,2017-01-09T08:00:00Z,29.1015,-89.9782,1034.14,11111222 
WAVCIS,ioos:station:WAVCIS:CSI09:1,2017-01-09T09:00:00Z,29.1015,-89.9782,1033.47,11111222 
WAVCIS,ioos:station:WAVCIS:CSI09:1,2017-01-09T10:00:00Z,29.1015,-89.9782,1033.11,11111222 
WAVCIS,ioos:station:WAVCIS:CSI09:1,2017-01-09T11:00:00Z,29.1015,-89.9782,1032.82,11111222 
WAVCIS,ioos:station:WAVCIS:CSI09:1,2017-01-09T12:00:00Z,29.1015,-89.9782,1032.81,11111222 
WAVCIS,ioos:station:WAVCIS:CSI09:1,2017-01-09T13:00:00Z,29.1015,-89.9782,1033.12,11111222 
WAVCIS,ioos:station:WAVCIS:CSI09:1,2017-01-09T14:00:00Z,29.1015,-89.9782,1033.74,11111222 
WAVCIS,ioos:station:WAVCIS:CSI09:1,2017-01-09T15:00:00Z,29.1015,-89.9782,1033.67,11111222 
WAVCIS,ioos:station:WAVCIS:CSI09:1,2017-01-09T16:00:00Z,29.1015,-89.9782,1033.48,11111222 
WAVCIS,ioos:station:WAVCIS:CSI09:1,2017-01-09T17:00:00Z,29.1015,-89.9782,1033.3,11111222 
WAVCIS,ioos:station:WAVCIS:CSI09:1,2017-01-09T18:00:00Z,29.1015,-89.9782,1032.44,11111222 
WAVCIS,ioos:station:WAVCIS:CSI09:1,2017-01-09T19:00:00Z,29.1015,-89.9782,1031.25,11111222 
WAVCIS,ioos:station:WAVCIS:CSI09:1,2017-01-09T20:00:00Z,29.1015,-89.9782,1030.49,11111222 
WAVCIS,ioos:station:WAVCIS:CSI09:1,2017-01-09T21:00:00Z,29.1015,-89.9782,1030.26,11111222 
WAVCIS,ioos:station:WAVCIS:CSI09:1,2017-01-09T22:00:00Z,29.1015,-89.9782,1029.95,11111222 
WAVCIS,ioos:station:WAVCIS:CSI09:1,2017-01-09T23:00:00Z,29.1015,-89.9782,1029.93,11111222 
WAVCIS,ioos:station:WAVCIS:CSI09:1,2017-01-10T00:00:00Z,29.1015,-89.9782,1029.78,11111222 
WAVCIS,ioos:station:WAVCIS:CSI09:1,2017-01-10T01:00:00Z,29.1015,-89.9782,1029.72,11111222 
WAVCIS,ioos:station:WAVCIS:CSI09:1,2017-01-10T02:00:00Z,29.1015,-89.9782,1029.45,11111222 
WAVCIS,ioos:station:WAVCIS:CSI09:1,2017-01-10T03:00:00Z,29.1015,-89.9782,1029.24,11111222 
WAVCIS,ioos:station:WAVCIS:CSI09:1,2017-01-10T04:00:00Z,29.1015,-89.9782,1028.64,11111222 
WAVCIS,ioos:station:WAVCIS:CSI09:1,2017-01-10T05:00:00Z,29.1015,-89.9782,1028.06,11111222 
WAVCIS,ioos:station:WAVCIS:CSI09:1,2017-01-10T06:00:00Z,29.1015,-89.9782,1027.22,11111222 
WAVCIS,ioos:station:WAVCIS:CSI09:1,2017-01-10T07:00:00Z,29.1015,-89.9782,1026.83,11111222 
WAVCIS,ioos:station:WAVCIS:CSI09:1,2017-01-10T08:00:00Z,29.1015,-89.9782,1026.1,11111222 
WAVCIS,ioos:station:WAVCIS:CSI09:1,2017-01-10T09:00:00Z,29.1015,-89.9782,1025.22,11111222 
WAVCIS,ioos:station:WAVCIS:CSI09:1,2017-01-10T10:00:00Z,29.1015,-89.9782,1024.64,11111222 
WAVCIS,ioos:station:WAVCIS:CSI09:1,2017-01-10T11:00:00Z,29.1015,-89.9782,1024.38,11111222 
WAVCIS,ioos:station:WAVCIS:CSI09:1,2017-01-10T12:00:00Z,29.1015,-89.9782,1024.68,11111222 
WAVCIS,ioos:station:WAVCIS:CSI09:1,2017-01-10T13:00:00Z,29.1015,-89.9782,1024.67,11111222 
WAVCIS,ioos:station:WAVCIS:CSI09:1,2017-01-10T14:00:00Z,29.1015,-89.9782,1025.1,11111222 
WAVCIS,ioos:station:WAVCIS:CSI09:1,2017-01-10T15:00:00Z,29.1015,-89.9782,1025.6,11111222 
WAVCIS,ioos:station:WAVCIS:CSI09:1,2017-01-10T16:00:00Z,29.1015,-89.9782,1025.82,11111222 
WAVCIS,ioos:station:WAVCIS:CSI09:1,2017-01-10T17:00:00Z,29.1015,-89.9782,1024.6,11111222 
WAVCIS,ioos:station:WAVCIS:CSI09:1,2017-01-10T18:00:00Z,29.1015,-89.9782,1023.71,11111222 
WAVCIS,ioos:station:WAVCIS:CSI09:1,2017-01-10T19:00:00Z,29.1015,-89.9782,1022.84,11111222 
WAVCIS,ioos:station:WAVCIS:CSI09:1,2017-01-10T20:00:00Z,29.1015,-89.9782,1022.89,11111222 
WAVCIS,ioos:station:WAVCIS:CSI09:1,2017-01-10T21:00:00Z,29.1015,-89.9782,1022.41,11111222 
WAVCIS,ioos:station:WAVCIS:CSI09:1,2017-01-10T22:00:00Z,29.1015,-89.9782,1022.02,11111222 
WAVCIS,ioos:station:WAVCIS:CSI09:1,2017-01-10T23:00:00Z,29.1015,-89.9782,1021.93,11111222 
WAVCIS,ioos:station:WAVCIS:CSI09:1,2017-01-11T00:00:00Z,29.1015,-89.9782,1022.29,11111222 
WAVCIS,ioos:station:WAVCIS:CSI09:1,2017-01-11T01:00:00Z,29.1015,-89.9782,1023.24,11111222 
WAVCIS,ioos:station:WAVCIS:CSI09:1,2017-01-11T02:00:00Z,29.1015,-89.9782,1023.37,11111222 
WAVCIS,ioos:station:WAVCIS:CSI09:1,2017-01-11T03:00:00Z,29.1015,-89.9782,1023.24,11111222 
WAVCIS,ioos:station:WAVCIS:CSI09:1,2017-01-11T04:00:00Z,29.1015,-89.9782,1023.17,11111222 
WAVCIS,ioos:station:WAVCIS:CSI09:1,2017-01-11T05:00:00Z,29.1015,-89.9782,1022.72,11111222 
WAVCIS,ioos:station:WAVCIS:CSI09:1,2017-01-11T06:00:00Z,29.1015,-89.9782,1022.26,11111222 
WAVCIS,ioos:station:WAVCIS:CSI09:1,2017-01-11T07:00:00Z,29.1015,-89.9782,1022.12,11111222 
WAVCIS,ioos:station:WAVCIS:CSI09:1,2017-01-11T08:00:00Z,29.1015,-89.9782,1022.03,11111222 
WAVCIS,ioos:station:WAVCIS:CSI09:1,2017-01-11T09:00:00Z,29.1015,-89.9782,1021.72,11111222 
WAVCIS,ioos:station:WAVCIS:CSI09:1,2017-01-11T10:00:00Z,29.1015,-89.9782,1021.43,11111222 
WAVCIS,ioos:station:WAVCIS:CSI09:1,2017-01-11T11:00:00Z,29.1015,-89.9782,1021.28,11111222 
WAVCIS,ioos:station:WAVCIS:CSI09:1,2017-01-11T12:00:00Z,29.1015,-89.9782,1021.51,11111222 
WAVCIS,ioos:station:WAVCIS:CSI09:1,2017-01-11T13:00:00Z,29.1015,-89.9782,1022.09,11111222 
WAVCIS,ioos:station:WAVCIS:CSI09:1,2017-01-11T14:00:00Z,29.1015,-89.9782,1022.67,11111222 
WAVCIS,ioos:station:WAVCIS:CSI09:1,2017-01-11T15:00:00Z,29.1015,-89.9782,1023.02,11111222 
WAVCIS,ioos:station:WAVCIS:CSI09:1,2017-01-11T16:00:00Z,29.1015,-89.9782,1023.6,11111222 
WAVCIS,ioos:station:WAVCIS:CSI09:1,2017-01-11T17:00:00Z,29.1015,-89.9782,1023.46,11111222 
WAVCIS,ioos:station:WAVCIS:CSI09:1,2017-01-11T18:00:00Z,29.1015,-89.9782,1022.78,11111222 
WAVCIS,ioos:station:WAVCIS:CSI09:1,2017-01-11T19:00:00Z,29.1015,-89.9782,1021.64,11111222 
WAVCIS,ioos:station:WAVCIS:CSI09:1,2017-01-11T20:00:00Z,29.1015,-89.9782,1021.01,11111222 
WAVCIS,ioos:station:WAVCIS:CSI09:1,2017-01-11T21:00:00Z,29.1015,-89.9782,1020.99,11111222 
WAVCIS,ioos:station:WAVCIS:CSI09:1,2017-01-11T22:00:00Z,29.1015,-89.9782,1020.73,11111222 